CW2550 Weather Reports


Display with metric or nautical units.
time (UTC)temp
F
wind
direction
speed
MPH
gust
MPH
rain 1hr
in
rain 24hr
in
rain mn
in
humidity
%
barometer
mb
20260901040048 68 0 0.0 0.0 0.00 0.00 0.00 87 1012.5
20260901034558 69 0 0.0 0.0 0.00 0.00 0.00 86 1012.6
20260901033051 70 0 0.0 0.0 0.00 0.00 0.00 84 1012.5
20260901031552 70 0 0.0 0.0 0.00 0.00 0.00 84 1012.4
20260901030048 71 0 0.0 0.0 0.00 0.00 0.00 82 1012.3
20260901024602 72 0 0.0 0.0 0.00 0.00 0.00 80 1012.4
20260901023057 73 0 0.0 0.0 0.00 0.00 0.00 79 1012.3
20260901021556 73 0 0.0 0.0 0.00 0.00 0.00 78 1012.2
20260901020053 74 0 0.0 0.0 0.00 0.00 0.00 77 1012.1
20260901014552 75 0 0.0 0.0 0.00 0.00 0.00 76 1012.1
20260901013104 76 0 0.0 1.0 0.00 0.00 0.00 74 1011.8
20260901011554 77 0 0.0 0.0 0.00 0.00 0.00 73 1011.7
20260901010054 78 0 0.0 0.0 0.00 0.00 0.00 72 1011.5
20260901004559 80 0 0.0 0.0 0.00 0.00 0.00 70 1011.4
20260901003056 81 0 0.0 0.0 0.00 0.00 0.00 68 1011.4
20260901001546 83 0 0.0 0.0 0.00 0.00 0.00 66 1011.3
20260901000053 83 0 0.0 0.0 0.00 0.00 0.00 63 1011.2
20260831234547 84 0 0.0 1.0 0.00 0.00 0.00 63 1011.2
20260831233057 85 0 0.0 2.0 0.00 0.00 0.00 62 1011.2
20260831231612 86 328 0.0 4.0 0.00 0.00 0.00 58 1011.2
20260831224555 89 0 0.0 3.0 0.00 0.00 0.00 54 1011.0
20260831223101 90 0 0.0 3.0 0.00 0.00 0.00 54 1010.8
20260831221547 90 313 0.0 4.0 0.00 0.00 0.00 51 1010.7
20260831220054 91 0 0.0 2.0 0.00 0.00 0.00 53 1010.6
20260831214555 89 0 0.0 3.0 0.00 0.00 0.00 53 1010.7
20260831213108 89 0 1.0 5.0 0.00 0.00 0.00 53 1010.5
20260831211611 88 294 1.0 6.0 0.00 0.00 0.00 52 1010.4
20260831210056 88 0 0.0 8.0 0.00 0.00 0.00 51 1010.5
20260831204554 88 0 1.0 4.0 0.00 0.00 0.00 57 1010.5
20260831203056 88 326 2.0 8.0 0.00 0.00 0.00 58 1010.6
20260831201604 87 323 1.0 5.0 0.00 0.00 0.00 60 1010.6
20260831200045 86 0 0.0 5.0 0.00 0.00 0.00 64 1010.4
20260831194637 86 321 2.0 4.0 0.00 0.00 0.00 64 1010.4
20260831193059 86 322 3.0 8.0 0.00 0.00 0.00 68 1010.4
20260831191601 86 0 0.0 6.0 0.00 0.00 0.00 73 1010.4
20260831190100 85 286 1.0 5.0 0.00 0.00 0.00 71 1010.3
20260831184600 85 340 1.0 5.0 0.00 0.00 0.00 71 1010.3
20260831183052 86 315 1.0 4.0 0.00 0.00 0.00 71 1010.3
20260831181555 84 323 0.0 4.0 0.00 0.00 0.00 75 1010.4
20260831180054 83 322 1.0 3.0 0.00 0.00 0.00 76 1010.4
20260831174556 83 318 2.0 7.0 0.00 0.00 0.00 76 1010.6
20260831173055 82 0 1.0 4.0 0.00 0.00 0.00 78 1010.6
20260831171555 82 325 1.0 5.0 0.00 0.00 0.00 79 1010.8
20260831170058 82 321 1.0 4.0 0.00 0.00 0.00 80 1010.7
20260831164556 81 317 1.0 6.0 0.00 0.00 0.00 81 1010.5
20260831163048 81 298 1.0 6.0 0.00 0.00 0.00 82 1010.6
20260831161600 80 312 1.0 6.0 0.00 0.00 0.00 82 1010.4
20260831160055 80 322 1.0 4.0 0.00 0.00 0.00 83 1010.4
20260831154616 80 309 1.0 4.0 0.00 0.00 0.00 83 1010.2
20260831153058 79 252 0.0 4.0 0.00 0.00 0.00 84 1010.2
20260831151603 78 0 0.0 4.0 0.00 0.00 0.00 85 1010.1
20260831150055 77 228 1.0 4.0 0.00 0.00 0.00 86 1009.7
20260831144626 77 0 0.0 4.0 0.00 0.00 0.00 88 1009.6
20260831143050 76 202 2.0 6.0 0.00 0.00 0.00 89 1009.5
20260831141557 75 227 2.0 7.0 0.00 0.00 0.00 90 1009.3
20260831140054 74 209 2.0 7.0 0.00 0.00 0.00 92 1009.2
20260831134554 73 223 3.0 7.0 0.00 0.00 0.00 93 1008.9
20260831133108 72 210 4.0 7.0 0.00 0.00 0.00 93 1008.7
20260831131603 72 218 4.0 9.0 0.00 0.00 0.00 94 1008.5
20260831130105 71 194 4.0 7.0 0.00 0.00 0.00 94 1008.3
20260831124555 70 228 2.0 7.0 0.00 0.00 0.00 93 1008.5
20260831123053 70 205 3.0 6.0 0.00 0.00 0.00 93 1008.3
20260831121554 70 202 3.0 7.0 0.00 0.00 0.00 93 1008.1
20260831114556 70 203 5.0 9.0 0.00 0.00 0.00 93 1007.6
20260831113102 70 184 5.0 10.0 0.00 0.00 0.00 93 1007.4
20260831111558 70 202 5.0 8.0 0.00 0.00 0.00 93 1007.3
20260831110055 71 181 5.0 10.0 0.00 0.00 0.00 93 1007.3
20260831104551 71 188 6.0 10.0 0.00 0.00 0.00 92 1007.3
20260831103045 71 215 5.0 10.0 0.00 0.00 0.00 92 1007.1
20260831101547 71 201 6.0 11.0 0.00 0.00 0.00 92 1007.3
20260831100116 71 186 5.0 9.0 0.00 0.00 0.00 92 1007.2
20260831094545 72 191 6.0 11.0 0.00 0.00 0.00 92 1007.2
20260831093047 72 195 4.0 10.0 0.00 0.00 0.00 91 1007.2
20260831091551 72 206 6.0 10.0 0.00 0.00 0.00 91 1007.2
20260831090049 73 182 6.0 11.0 0.00 0.00 0.00 91 1007.1
20260831084632 73 193 6.0 13.0 0.00 0.00 0.00 91 1007.0
20260831083054 73 204 5.0 11.0 0.00 0.00 0.00 91 1007.0
20260831081547 72 191 5.0 9.0 0.00 0.00 0.00 91 1006.9
20260831080110 72 182 4.0 10.0 0.00 0.00 0.00 91 1006.8
20260831074601 72 195 3.0 7.0 0.00 0.00 0.00 92 1006.7
20260831073101 71 184 3.0 6.0 0.00 0.00 0.00 91 1006.9
20260831071607 71 0 0.0 0.0 0.00 0.00 0.00 91 1007.1
20260831070055 71 0 0.0 0.0 0.00 0.00 0.00 91 1007.3
20260831064553 71 0 0.0 0.0 0.00 0.00 0.00 91 1007.6
20260831063101 71 0 0.0 0.0 0.00 0.00 0.00 90 1007.6
20260831061557 72 0 0.0 4.0 0.00 0.00 0.00 90 1007.6
20260831060105 72 184 2.0 6.0 0.00 0.00 0.00 90 1007.8
20260831054555 72 170 3.0 7.0 0.00 0.00 0.00 89 1007.7
20260831053107 72 167 3.0 7.0 0.00 0.00 0.00 88 1008.1
20260831051556 72 180 3.0 8.0 0.00 0.00 0.00 88 1008.1
20260831050124 72 188 3.0 8.0 0.00 0.00 0.00 88 1008.5
20260831044552 73 193 2.0 8.0 0.00 0.00 0.00 87 1008.4
20260831043100 73 184 4.0 11.0 0.00 0.00 0.00 87 1008.2
20260831041617 73 173 5.0 12.0 0.00 0.00 0.00 87 1008.4